Time,TemperatureF,DewpointF,PressureIn,WindDirection,WindDirectionDegrees,WindSpeedMPH,WindSpeedGustMPH,Humidity,HourlyPrecipIn,Conditions,Clouds,dailyrainin,SolarRadiationWatts/m^2,SoftwareType,DateUTC
2013-04-25 00:21:00,32.0,25.0,-100.00,NW,313,3.0,7.0,76,0.00,,,0.01,0.000000,,2013-04-25 08:21:00,
2013-04-25 00:31:00,32.0,25.0,-100.00,NW,313,3.0,7.0,76,0.00,,,0.01,0.000000,,2013-04-25 08:31:00,
2013-04-25 00:41:00,32.0,25.0,-100.00,NW,313,3.0,7.0,76,0.00,,,0.01,0.000000,,2013-04-25 08:41:00,
2013-04-25 00:51:00,32.0,25.0,-100.00,NW,313,3.0,7.0,76,0.00,,,0.01,0.000000,,2013-04-25 08:51:00,
2013-04-25 01:21:00,30.0,28.0,-100.00,NNE,17,6.0,11.0,93,0.00,,,0.01,0.000000,,2013-04-25 09:21:00,
2013-04-25 01:33:00,30.0,28.0,-100.00,NNE,17,6.0,11.0,93,0.00,,,0.01,0.000000,,2013-04-25 09:33:00,
2013-04-25 01:42:00,30.0,28.0,-100.00,NNE,17,6.0,11.0,93,0.00,,,0.01,0.000000,,2013-04-25 09:42:00,
2013-04-25 01:52:00,30.0,28.0,-100.00,NNE,17,6.0,11.0,93,0.00,,,0.01,0.000000,,2013-04-25 09:52:00,
2013-04-25 02:22:00,30.0,28.0,-100.00,North,8,8.0,15.0,94,0.00,,,0.01,0.000000,,2013-04-25 10:22:00,
2013-04-25 02:32:00,30.0,28.0,-100.00,North,8,8.0,15.0,94,0.00,,,0.01,0.000000,,2013-04-25 10:32:00,
2013-04-25 02:42:00,30.0,28.0,-100.00,North,8,8.0,15.0,94,0.00,,,0.01,0.000000,,2013-04-25 10:42:00,
2013-04-25 02:52:00,30.0,28.0,-100.00,North,8,8.0,15.0,94,0.00,,,0.01,0.000000,,2013-04-25 10:52:00,
2013-04-25 03:22:00,29.0,27.0,-100.00,North,9,7.0,14.0,92,0.00,,,0.01,0.000000,,2013-04-25 11:22:00,
2013-04-25 03:32:00,29.0,27.0,-100.00,North,9,7.0,14.0,92,0.00,,,0.01,0.000000,,2013-04-25 11:32:00,
2013-04-25 03:42:00,29.0,27.0,-100.00,North,9,7.0,14.0,92,0.00,,,0.01,0.000000,,2013-04-25 11:42:00,
2013-04-25 03:51:00,29.0,27.0,-100.00,North,9,7.0,14.0,92,0.00,,,0.01,0.000000,,2013-04-25 11:51:00,
2013-04-25 04:21:00,28.0,24.0,-100.00,North,3,5.0,13.0,83,0.00,,,0.01,0.000000,,2013-04-25 12:21:00,
2013-04-25 04:31:00,28.0,24.0,-100.00,North,3,5.0,13.0,83,0.00,,,0.01,0.000000,,2013-04-25 12:31:00,
2013-04-25 04:41:00,28.0,24.0,-100.00,North,3,5.0,13.0,83,0.00,,,0.01,0.000000,,2013-04-25 12:41:00,
2013-04-25 04:51:00,28.0,24.0,-100.00,North,3,5.0,13.0,83,0.00,,,0.01,0.000000,,2013-04-25 12:51:00,
2013-04-25 05:21:00,27.0,22.0,-100.00,NNE,15,7.0,14.0,81,0.00,,,0.01,0.000000,,2013-04-25 13:21:00,
2013-04-25 05:31:00,27.0,22.0,-100.00,NNE,15,7.0,14.0,81,0.00,,,0.01,0.000000,,2013-04-25 13:31:00,
2013-04-25 05:42:00,27.0,22.0,-100.00,NNE,15,7.0,14.0,81,0.00,,,0.01,0.000000,,2013-04-25 13:42:00,
2013-04-25 05:52:00,27.0,22.0,-100.00,NNE,15,7.0,14.0,81,0.00,,,0.01,0.000000,,2013-04-25 13:52:00,
2013-04-25 06:21:00,26.0,19.0,-100.00,North,6,5.0,12.0,75,0.00,,,0.00,0.000000,,2013-04-25 14:21:00,
2013-04-25 06:32:00,26.0,19.0,-100.00,North,6,5.0,12.0,75,0.00,,,0.00,0.000000,,2013-04-25 14:32:00,
2013-04-25 06:42:00,26.0,19.0,-100.00,North,6,5.0,12.0,75,0.00,,,0.00,0.000000,,2013-04-25 14:42:00,
2013-04-25 06:51:00,26.0,19.0,-100.00,North,6,5.0,12.0,75,0.00,,,0.00,0.000000,,2013-04-25 14:51:00,
2013-04-25 07:21:00,26.0,16.0,-100.00,North,6,6.0,13.0,66,0.00,,,0.00,3.000000,,2013-04-25 15:21:00,
2013-04-25 07:33:00,26.0,16.0,-100.00,North,6,6.0,13.0,66,0.00,,,0.00,3.000000,,2013-04-25 15:33:00,
2013-04-25 07:42:00,26.0,16.0,-100.00,North,6,6.0,13.0,66,0.00,,,0.00,3.000000,,2013-04-25 15:42:00,
2013-04-25 07:52:00,26.0,16.0,-100.00,North,6,6.0,13.0,66,0.00,,,0.00,3.000000,,2013-04-25 15:52:00,
2013-04-25 08:24:00,27.0,18.0,-100.00,North,6,5.0,12.0,67,0.00,,,0.00,17.000000,,2013-04-25 16:24:00,
2013-04-25 08:32:00,27.0,18.0,-100.00,North,6,5.0,12.0,67,0.00,,,0.00,17.000000,,2013-04-25 16:32:00,
2013-04-25 08:42:00,27.0,18.0,-100.00,North,6,5.0,12.0,67,0.00,,,0.00,17.000000,,2013-04-25 16:42:00,
2013-04-25 08:52:00,27.0,18.0,-100.00,North,6,5.0,12.0,67,0.00,,,0.00,17.000000,,2013-04-25 16:52:00,
2013-04-25 09:22:00,33.0,18.0,-100.00,NNE,12,6.0,14.0,53,0.01,,,0.01,90.000000,,2013-04-25 17:22:00,
2013-04-25 09:32:00,33.0,18.0,-100.00,NNE,12,6.0,14.0,53,0.01,,,0.01,90.000000,,2013-04-25 17:32:00,
2013-04-25 09:42:00,33.0,18.0,-100.00,NNE,12,6.0,14.0,53,0.01,,,0.01,90.000000,,2013-04-25 17:42:00,
2013-04-25 09:53:00,33.0,18.0,-100.00,NNE,12,6.0,14.0,53,0.01,,,0.01,90.000000,,2013-04-25 17:53:00,
2013-04-25 10:21:00,35.0,17.0,-100.00,North,11,8.0,15.0,47,0.02,,,0.03,173.000000,,2013-04-25 18:21:00,
2013-04-25 10:32:00,35.0,17.0,-100.00,North,11,8.0,15.0,47,0.02,,,0.03,173.000000,,2013-04-25 18:32:00,
2013-04-25 10:42:00,35.0,17.0,-100.00,North,11,8.0,15.0,47,0.02,,,0.03,173.000000,,2013-04-25 18:42:00,
2013-04-25 10:52:00,35.0,17.0,-100.00,North,11,8.0,15.0,47,0.02,,,0.03,173.000000,,2013-04-25 18:52:00,
2013-04-25 11:21:00,40.0,16.0,-100.00,North,8,8.0,18.0,37,0.00,,,0.03,432.000000,,2013-04-25 19:21:00,
2013-04-25 12:22:00,42.0,10.0,-100.00,North,355,9.0,18.0,27,0.00,,,0.03,608.000000,,2013-04-25 20:22:00,
2013-04-25 12:42:00,42.0,10.0,-100.00,North,355,9.0,18.0,27,0.00,,,0.03,608.000000,,2013-04-25 20:42:00,
2013-04-25 12:51:00,42.0,10.0,-100.00,North,355,9.0,18.0,27,0.00,,,0.03,608.000000,,2013-04-25 20:51:00,
2013-04-25 13:21:00,41.0,5.0,-100.00,North,9,13.0,26.0,22,0.00,,,0.03,702.000000,,2013-04-25 21:21:00,
2013-04-25 13:33:00,41.0,5.0,-100.00,North,9,13.0,26.0,22,0.00,,,0.03,702.000000,,2013-04-25 21:33:00,
2013-04-25 13:42:00,41.0,5.0,-100.00,North,9,13.0,26.0,22,0.00,,,0.03,702.000000,,2013-04-25 21:42:00,
2013-04-25 13:52:00,41.0,5.0,-100.00,North,9,13.0,26.0,22,0.00,,,0.03,702.000000,,2013-04-25 21:52:00,
2013-04-25 14:22:00,42.0,6.0,-100.00,NNE,18,13.0,25.0,22,0.00,,,0.03,748.000000,,2013-04-25 22:22:00,
2013-04-25 14:32:00,42.0,6.0,-100.00,NNE,18,13.0,25.0,22,0.00,,,0.03,748.000000,,2013-04-25 22:32:00,
2013-04-25 14:42:00,42.0,6.0,-100.00,NNE,18,13.0,25.0,22,0.00,,,0.03,748.000000,,2013-04-25 22:42:00,
2013-04-25 14:52:00,42.0,6.0,-100.00,NNE,18,13.0,25.0,22,0.00,,,0.03,748.000000,,2013-04-25 22:52:00,
2013-04-25 15:22:00,42.0,7.0,-100.00,NNE,14,13.0,28.0,23,0.00,,,0.03,751.000000,,2013-04-25 23:22:00,
2013-04-25 15:32:00,42.0,7.0,-100.00,NNE,14,13.0,28.0,23,0.00,,,0.03,751.000000,,2013-04-25 23:32:00,
2013-04-25 15:41:00,42.0,7.0,-100.00,NNE,14,13.0,28.0,23,0.00,,,0.03,751.000000,,2013-04-25 23:41:00,
2013-04-25 15:52:00,42.0,7.0,-100.00,NNE,14,13.0,28.0,23,0.00,,,0.03,751.000000,,2013-04-25 23:52:00,
2013-04-25 16:21:00,41.0,5.0,-100.00,North,11,13.0,28.0,22,0.00,,,0.03,715.000000,,2013-04-26 00:21:00,
2013-04-25 16:31:00,41.0,5.0,-100.00,North,11,13.0,28.0,22,0.00,,,0.03,715.000000,,2013-04-26 00:31:00,
2013-04-25 16:41:00,41.0,5.0,-100.00,North,11,13.0,28.0,22,0.00,,,0.03,715.000000,,2013-04-26 00:41:00,
2013-04-25 16:51:00,41.0,5.0,-100.00,North,11,13.0,28.0,22,0.00,,,0.03,715.000000,,2013-04-26 00:51:00,
2013-04-25 17:21:00,41.0,4.0,-100.00,North,6,11.0,24.0,21,0.00,,,0.03,640.000000,,2013-04-26 01:21:00,
2013-04-25 17:31:00,41.0,4.0,-100.00,North,6,11.0,24.0,21,0.00,,,0.03,640.000000,,2013-04-26 01:31:00,
2013-04-25 17:41:00,41.0,4.0,-100.00,North,6,11.0,24.0,21,0.00,,,0.03,640.000000,,2013-04-26 01:41:00,
2013-04-25 17:52:00,41.0,4.0,-100.00,North,6,11.0,24.0,21,0.00,,,0.03,640.000000,,2013-04-26 01:52:00,
2013-04-25 18:21:00,40.0,4.0,-100.00,North,10,12.0,31.0,22,0.00,,,0.03,532.000000,,2013-04-26 02:21:00,
2013-04-25 18:32:00,40.0,4.0,-100.00,North,10,12.0,31.0,22,0.00,,,0.03,532.000000,,2013-04-26 02:32:00,
2013-04-25 18:42:00,40.0,4.0,-100.00,North,10,12.0,31.0,22,0.00,,,0.03,532.000000,,2013-04-26 02:42:00,
2013-04-25 18:51:00,40.0,4.0,-100.00,North,10,12.0,31.0,22,0.00,,,0.03,532.000000,,2013-04-26 02:51:00,
2013-04-25 19:21:00,39.0,2.0,-100.00,NNE,14,11.0,29.0,21,0.00,,,0.03,405.000000,,2013-04-26 03:21:00,
2013-04-25 19:33:00,39.0,2.0,-100.00,NNE,14,11.0,29.0,21,0.00,,,0.03,405.000000,,2013-04-26 03:33:00,
2013-04-25 19:43:00,39.0,2.0,-100.00,NNE,14,11.0,29.0,21,0.00,,,0.03,405.000000,,2013-04-26 03:43:00,
2013-04-25 19:52:00,39.0,2.0,-100.00,NNE,14,11.0,29.0,21,0.00,,,0.03,405.000000,,2013-04-26 03:52:00,
2013-04-25 20:22:00,36.0,0.0,-100.00,NNE,15,12.0,27.0,21,0.00,,,0.03,269.000000,,2013-04-26 04:22:00,
2013-04-25 20:32:00,36.0,0.0,-100.00,NNE,15,12.0,27.0,21,0.00,,,0.03,269.000000,,2013-04-26 04:32:00,
2013-04-25 20:43:00,36.0,0.0,-100.00,NNE,15,12.0,27.0,21,0.00,,,0.03,269.000000,,2013-04-26 04:43:00,
2013-04-25 20:52:00,36.0,0.0,-100.00,NNE,15,12.0,27.0,21,0.00,,,0.03,269.000000,,2013-04-26 04:52:00,
2013-04-25 21:22:00,34.0,2.0,-100.00,NNE,20,8.0,29.0,25,0.00,,,0.03,123.000000,,2013-04-26 05:22:00,
2013-04-25 21:32:00,34.0,2.0,-100.00,NNE,20,8.0,29.0,25,0.00,,,0.03,123.000000,,2013-04-26 05:32:00,
2013-04-25 21:42:00,34.0,2.0,-100.00,NNE,20,8.0,29.0,25,0.00,,,0.03,123.000000,,2013-04-26 05:42:00,
2013-04-25 21:52:00,34.0,2.0,-100.00,NNE,20,8.0,29.0,25,0.00,,,0.03,123.000000,,2013-04-26 05:52:00,
2013-04-25 22:21:00,31.0,-1.0,-100.00,North,4,8.0,22.0,25,0.00,,,0.03,26.000000,,2013-04-26 06:21:00,
2013-04-25 22:32:00,31.0,-1.0,-100.00,North,4,8.0,22.0,25,0.00,,,0.03,26.000000,,2013-04-26 06:32:00,
2013-04-25 22:41:00,31.0,-1.0,-100.00,North,4,8.0,22.0,25,0.00,,,0.03,26.000000,,2013-04-26 06:41:00,
2013-04-25 22:51:00,31.0,-1.0,-100.00,North,4,8.0,22.0,25,0.00,,,0.03,26.000000,,2013-04-26 06:51:00,
2013-04-25 23:22:00,28.0,4.0,-100.00,NNE,18,6.0,16.0,35,0.00,,,0.03,1.000000,,2013-04-26 07:22:00,
2013-04-25 23:31:00,28.0,4.0,-100.00,NNE,18,6.0,16.0,35,0.00,,,0.03,1.000000,,2013-04-26 07:31:00,
2013-04-25 23:42:00,28.0,4.0,-100.00,NNE,18,6.0,16.0,35,0.00,,,0.03,1.000000,,2013-04-26 07:42:00,
2013-04-25 23:52:00,28.0,4.0,-100.00,NNE,18,6.0,16.0,35,0.00,,,0.03,1.000000,,2013-04-26 07:52:00,